Time,TemperatureF,DewpointF,PressureIn,WindDirection,WindDirectionDegrees,WindSpeedMPH,WindSpeedGustMPH,Humidity,HourlyPrecipIn,Conditions,Clouds,dailyrainin,SoftwareType,DateUTC
2013-06-05 00:02:00,67.0,61.0,29.97,SE,143,0.0,4.0,81,0.00,,,0.00,,2013-06-05 05:02:00,
2013-06-05 00:12:00,67.0,61.0,29.97,SE,143,0.0,4.0,81,0.00,,,0.00,,2013-06-05 05:12:00,
2013-06-05 00:22:00,66.0,60.0,29.96,SE,143,0.0,0.0,81,0.00,,,0.00,,2013-06-05 05:22:00,
2013-06-05 00:32:00,66.0,60.0,29.95,SE,142,0.0,2.0,82,0.00,,,0.00,,2013-06-05 05:32:00,
2013-06-05 00:42:00,66.0,60.0,29.95,SE,142,0.0,2.0,82,0.00,,,0.00,,2013-06-05 05:42:00,
2013-06-05 00:52:00,65.0,60.0,29.95,SE,143,2.0,6.0,84,0.00,,,0.00,,2013-06-05 05:52:00,
2013-06-05 01:02:00,65.0,60.0,29.95,SE,142,2.0,5.0,85,0.00,,,0.00,,2013-06-05 06:02:00,
2013-06-05 01:12:00,65.0,60.0,29.95,SE,142,2.0,5.0,85,0.00,,,0.00,,2013-06-05 06:12:00,
2013-06-05 01:22:00,65.0,61.0,29.94,SE,143,0.0,3.0,86,0.00,,,0.00,,2013-06-05 06:22:00,
2013-06-05 01:32:00,64.0,60.0,29.94,SE,143,2.0,4.0,86,0.00,,,0.00,,2013-06-05 06:32:00,
2013-06-05 01:42:00,64.0,60.0,29.94,SE,143,2.0,4.0,86,0.00,,,0.00,,2013-06-05 06:42:00,
2013-06-05 01:52:00,64.0,60.0,29.93,SE,143,2.0,5.0,87,0.00,,,0.00,,2013-06-05 06:52:00,
2013-06-05 02:02:00,64.0,60.0,29.94,SE,145,1.0,4.0,87,0.00,,,0.00,,2013-06-05 07:02:00,
2013-06-05 02:12:00,64.0,60.0,29.94,SE,145,1.0,4.0,87,0.00,,,0.00,,2013-06-05 07:12:00,
2013-06-05 02:22:00,64.0,60.0,29.95,SE,145,0.0,1.0,87,0.00,,,0.00,,2013-06-05 07:22:00,
2013-06-05 02:32:00,64.0,60.0,29.95,SE,145,0.0,0.0,88,0.00,,,0.00,,2013-06-05 07:32:00,
2013-06-05 02:42:00,64.0,60.0,29.95,SE,145,0.0,0.0,88,0.00,,,0.00,,2013-06-05 07:42:00,
2013-06-05 02:52:00,64.0,61.0,29.96,SE,145,0.0,0.0,89,0.00,,,0.00,,2013-06-05 07:52:00,
2013-06-05 03:02:00,64.0,61.0,29.96,SE,145,1.0,2.0,89,0.00,,,0.00,,2013-06-05 08:02:00,
2013-06-05 03:12:00,64.0,61.0,29.96,SE,145,1.0,2.0,89,0.00,,,0.00,,2013-06-05 08:12:00,
2013-06-05 03:22:00,64.0,61.0,29.96,SE,145,0.0,2.0,89,0.00,,,0.00,,2013-06-05 08:22:00,
2013-06-05 03:32:00,64.0,61.0,29.96,SE,145,0.0,0.0,89,0.00,,,0.00,,2013-06-05 08:32:00,
2013-06-05 03:42:00,64.0,61.0,29.96,SE,145,0.0,0.0,89,0.00,,,0.00,,2013-06-05 08:42:00,
2013-06-05 03:52:00,64.0,61.0,29.96,SE,145,0.0,0.0,90,0.00,,,0.00,,2013-06-05 08:52:00,
2013-06-05 04:02:00,64.0,61.0,29.96,SE,145,0.0,1.0,90,0.00,,,0.00,,2013-06-05 09:02:00,
2013-06-05 04:12:00,64.0,61.0,29.96,SE,145,0.0,1.0,90,0.00,,,0.00,,2013-06-05 09:12:00,
2013-06-05 04:22:00,64.0,61.0,29.95,SE,145,0.0,0.0,90,0.00,,,0.00,,2013-06-05 09:22:00,
2013-06-05 04:32:00,63.0,60.0,29.95,SE,145,0.0,0.0,90,0.00,,,0.00,,2013-06-05 09:32:00,
2013-06-05 04:42:00,63.0,60.0,29.95,SE,145,0.0,0.0,90,0.00,,,0.00,,2013-06-05 09:42:00,
2013-06-05 04:53:00,63.0,60.0,29.95,SE,145,0.0,0.0,90,0.00,,,0.00,,2013-06-05 09:53:00,
2013-06-05 05:03:00,63.0,60.0,29.95,SE,145,0.0,0.0,91,0.00,,,0.00,,2013-06-05 10:03:00,
2013-06-05 05:12:00,63.0,60.0,29.95,SE,145,0.0,0.0,91,0.00,,,0.00,,2013-06-05 10:12:00,
2013-06-05 05:22:00,63.0,60.0,29.95,SE,145,2.0,4.0,91,0.00,,,0.00,,2013-06-05 10:22:00,
2013-06-05 05:33:00,63.0,60.0,29.94,SE,145,1.0,3.0,90,0.00,,,0.00,,2013-06-05 10:33:00,
2013-06-05 05:42:00,63.0,60.0,29.94,SE,145,1.0,3.0,90,0.00,,,0.00,,2013-06-05 10:42:00,
2013-06-05 05:52:00,63.0,60.0,29.93,SE,145,1.0,4.0,90,0.00,,,0.00,,2013-06-05 10:52:00,
2013-06-05 06:02:00,62.0,59.0,29.93,SE,145,1.0,3.0,90,0.00,,,0.00,,2013-06-05 11:02:00,
2013-06-05 06:12:00,62.0,59.0,29.93,SE,145,1.0,3.0,90,0.00,,,0.00,,2013-06-05 11:12:00,
2013-06-05 06:22:00,62.0,59.0,29.93,SE,145,1.0,3.0,89,0.00,,,0.00,,2013-06-05 11:22:00,
2013-06-05 06:32:00,62.0,59.0,29.93,SE,145,0.0,3.0,90,0.00,,,0.00,,2013-06-05 11:32:00,
2013-06-05 06:42:00,62.0,59.0,29.93,SE,145,0.0,3.0,90,0.00,,,0.00,,2013-06-05 11:42:00,
2013-06-05 06:52:00,62.0,59.0,29.92,SE,145,0.0,0.0,89,0.00,,,0.00,,2013-06-05 11:52:00,
2013-06-05 07:02:00,62.0,59.0,29.92,SE,145,0.0,0.0,89,0.00,,,0.00,,2013-06-05 12:02:00,
2013-06-05 07:12:00,62.0,59.0,29.92,SE,145,0.0,0.0,89,0.00,,,0.00,,2013-06-05 12:12:00,
2013-06-05 07:22:00,62.0,59.0,29.92,SE,145,0.0,0.0,90,0.00,,,0.00,,2013-06-05 12:22:00,
2013-06-05 07:32:00,62.0,59.0,29.93,SE,145,2.0,3.0,89,0.00,,,0.00,,2013-06-05 12:32:00,
2013-06-05 07:44:00,62.0,59.0,29.93,SE,145,2.0,3.0,89,0.00,,,0.00,,2013-06-05 12:44:00,
2013-06-05 07:52:00,63.0,60.0,29.93,SE,145,1.0,3.0,89,0.00,,,0.00,,2013-06-05 12:52:00,
2013-06-05 08:02:00,63.0,59.0,29.93,SE,145,0.0,1.0,86,0.00,,,0.00,,2013-06-05 13:02:00,
2013-06-05 08:12:00,63.0,59.0,29.93,SE,145,0.0,2.0,86,0.00,,,0.00,,2013-06-05 13:12:00,
2013-06-05 08:22:00,63.0,59.0,29.93,SE,145,0.0,2.0,86,0.00,,,0.00,,2013-06-05 13:22:00,
2013-06-05 08:32:00,64.0,59.0,29.93,SE,145,1.0,2.0,85,0.00,,,0.00,,2013-06-05 13:32:00,
2013-06-05 08:42:00,64.0,59.0,29.93,SE,145,2.0,5.0,84,0.00,,,0.00,,2013-06-05 13:42:00,
2013-06-05 08:52:00,64.0,59.0,29.93,SE,145,2.0,5.0,84,0.00,,,0.00,,2013-06-05 13:52:00,
2013-06-05 09:02:00,65.0,60.0,29.94,SE,145,0.0,0.0,83,0.00,,,0.00,,2013-06-05 14:02:00,
2013-06-05 09:12:00,65.0,60.0,29.95,SE,145,0.0,0.0,85,0.00,,,0.00,,2013-06-05 14:12:00,
2013-06-05 09:22:00,65.0,60.0,29.95,SE,145,0.0,0.0,85,0.00,,,0.00,,2013-06-05 14:22:00,
2013-06-05 09:32:00,65.0,60.0,29.95,SE,145,0.0,0.0,84,0.00,,,0.00,,2013-06-05 14:32:00,
2013-06-05 09:42:00,65.0,60.0,29.95,SE,145,0.0,0.0,83,0.00,,,0.00,,2013-06-05 14:42:00,
2013-06-05 09:52:00,65.0,60.0,29.95,SE,145,0.0,0.0,83,0.00,,,0.00,,2013-06-05 14:52:00,
2013-06-05 10:02:00,65.0,60.0,29.96,SE,145,0.0,0.0,84,0.00,,,0.00,,2013-06-05 15:02:00,
2013-06-05 10:12:00,65.0,60.0,29.96,SE,145,0.0,0.0,84,0.00,,,0.00,,2013-06-05 15:12:00,
2013-06-05 10:22:00,65.0,60.0,29.96,SE,145,0.0,0.0,84,0.00,,,0.00,,2013-06-05 15:22:00,
2013-06-05 10:33:00,65.0,60.0,29.96,SE,145,0.0,1.0,83,0.00,,,0.00,,2013-06-05 15:33:00,
2013-06-05 10:42:00,65.0,60.0,29.96,SE,145,0.0,0.0,83,0.00,,,0.00,,2013-06-05 15:42:00,
2013-06-05 10:53:00,65.0,60.0,29.96,SE,145,0.0,0.0,83,0.00,,,0.00,,2013-06-05 15:53:00,
2013-06-05 11:03:00,65.0,60.0,29.96,SE,145,0.0,0.0,85,0.00,,,0.00,,2013-06-05 16:03:00,
2013-06-05 11:12:00,65.0,60.0,29.96,SE,145,0.0,0.0,84,0.00,,,0.00,,2013-06-05 16:12:00,
2013-06-05 11:22:00,65.0,60.0,29.96,SE,145,0.0,0.0,84,0.00,,,0.00,,2013-06-05 16:22:00,
2013-06-05 11:32:00,65.0,60.0,29.96,SE,145,0.0,0.0,85,0.00,,,0.00,,2013-06-05 16:32:00,
2013-06-05 11:42:00,65.0,61.0,29.96,SE,145,0.0,0.0,86,0.00,,,0.00,,2013-06-05 16:42:00,
2013-06-05 11:54:00,65.0,61.0,29.96,SE,145,0.0,0.0,86,0.00,,,0.00,,2013-06-05 16:54:00,
2013-06-05 12:02:00,64.0,60.0,29.97,SE,145,0.0,0.0,88,0.01,,,0.01,,2013-06-05 17:02:00,
2013-06-05 12:12:00,64.0,61.0,29.97,SE,145,0.0,0.0,89,0.01,,,0.01,,2013-06-05 17:12:00,
2013-06-05 12:22:00,64.0,61.0,29.97,SE,145,0.0,0.0,89,0.01,,,0.01,,2013-06-05 17:22:00,
2013-06-05 12:32:00,63.0,60.0,29.97,SE,145,0.0,0.0,91,0.03,,,0.03,,2013-06-05 17:32:00,
2013-06-05 12:42:00,63.0,60.0,29.97,SE,145,0.0,0.0,91,0.05,,,0.05,,2013-06-05 17:42:00,
2013-06-05 12:52:00,63.0,60.0,29.97,SE,145,0.0,0.0,91,0.05,,,0.05,,2013-06-05 17:52:00,
2013-06-05 13:02:00,63.0,61.0,29.96,SE,145,1.0,2.0,92,0.10,,,0.11,,2013-06-05 18:02:00,
2013-06-05 13:12:00,63.0,61.0,29.97,SE,145,0.0,0.0,92,0.12,,,0.13,,2013-06-05 18:12:00,
2013-06-05 13:22:00,63.0,61.0,29.97,SE,145,0.0,0.0,92,0.12,,,0.13,,2013-06-05 18:22:00,
2013-06-05 13:32:00,63.0,61.0,29.97,SE,145,0.0,2.0,92,0.26,,,0.29,,2013-06-05 18:32:00,
2013-06-05 13:42:00,63.0,61.0,29.96,SE,145,0.0,0.0,93,0.33,,,0.38,,2013-06-05 18:42:00,
2013-06-05 13:52:00,63.0,61.0,29.96,SE,145,0.0,0.0,93,0.33,,,0.38,,2013-06-05 18:52:00,
2013-06-05 14:02:00,63.0,61.0,29.96,SE,145,1.0,1.0,93,0.32,,,0.43,,2013-06-05 19:02:00,
2013-06-05 14:12:00,63.0,61.0,29.96,SE,145,1.0,1.0,93,0.32,,,0.43,,2013-06-05 19:12:00,
2013-06-05 14:23:00,63.0,61.0,29.97,SE,145,1.0,3.0,93,0.31,,,0.44,,2013-06-05 19:23:00,
2013-06-05 14:32:00,63.0,61.0,29.97,SE,145,1.0,5.0,92,0.17,,,0.46,,2013-06-05 19:32:00,
2013-06-05 14:42:00,63.0,61.0,29.96,NNE,22,3.0,6.0,92,0.09,,,0.47,,2013-06-05 19:42:00,
2013-06-05 14:52:00,63.0,61.0,29.96,NNE,22,3.0,6.0,92,0.09,,,0.47,,2013-06-05 19:52:00,
2013-06-05 15:02:00,62.0,60.0,29.96,North,4,2.0,7.0,92,0.05,,,0.48,,2013-06-05 20:02:00,
2013-06-05 15:12:00,62.0,60.0,29.95,NNW,337,1.0,5.0,92,0.04,,,0.48,,2013-06-05 20:12:00,
2013-06-05 15:22:00,62.0,60.0,29.95,NNW,337,1.0,5.0,92,0.04,,,0.48,,2013-06-05 20:22:00,
2013-06-05 15:32:00,63.0,60.0,29.94,NNE,18,2.0,8.0,91,0.02,,,0.48,,2013-06-05 20:32:00,
2013-06-05 15:42:00,63.0,60.0,29.94,NNW,342,2.0,7.0,91,0.01,,,0.48,,2013-06-05 20:42:00,
2013-06-05 15:52:00,63.0,60.0,29.94,NNW,342,2.0,7.0,91,0.01,,,0.48,,2013-06-05 20:52:00,
2013-06-05 16:02:00,63.0,60.0,29.94,NNW,348,3.0,10.0,89,0.00,,,0.48,,2013-06-05 21:02:00,
2013-06-05 16:12:00,63.0,60.0,29.94,NNW,348,3.0,10.0,89,0.00,,,0.48,,2013-06-05 21:12:00,
2013-06-05 16:22:00,63.0,60.0,29.94,NNW,348,3.0,10.0,89,0.00,,,0.48,,2013-06-05 21:22:00,
2013-06-05 16:33:00,63.0,60.0,29.93,North,355,2.0,6.0,89,0.00,,,0.48,,2013-06-05 21:33:00,
2013-06-05 16:43:00,63.0,60.0,29.93,North,355,2.0,6.0,89,0.00,,,0.48,,2013-06-05 21:43:00,
2013-06-05 16:53:00,63.0,60.0,29.93,North,355,2.0,6.0,89,0.00,,,0.48,,2013-06-05 21:53:00,
2013-06-05 17:02:00,63.0,60.0,29.93,NW,311,1.0,5.0,89,0.00,,,0.48,,2013-06-05 22:02:00,
2013-06-05 17:12:00,64.0,61.0,29.94,NW,318,2.0,6.0,89,0.00,,,0.48,,2013-06-05 22:12:00,
2013-06-05 17:22:00,64.0,61.0,29.94,NW,318,2.0,6.0,89,0.00,,,0.48,,2013-06-05 22:22:00,
2013-06-05 17:32:00,64.0,61.0,29.94,North,351,0.0,4.0,89,0.00,,,0.48,,2013-06-05 22:32:00,
2013-06-05 17:42:00,64.0,61.0,29.94,WNW,303,1.0,2.0,89,0.00,,,0.48,,2013-06-05 22:42:00,
2013-06-05 17:52:00,64.0,61.0,29.94,WNW,303,1.0,2.0,89,0.00,,,0.48,,2013-06-05 22:52:00,
2013-06-05 18:02:00,64.0,61.0,29.94,WNW,303,1.0,3.0,89,0.00,,,0.48,,2013-06-05 23:02:00,
2013-06-05 18:12:00,64.0,61.0,29.93,NNW,335,1.0,2.0,89,0.00,,,0.48,,2013-06-05 23:12:00,
2013-06-05 18:22:00,64.0,61.0,29.93,NNW,335,1.0,2.0,89,0.00,,,0.48,,2013-06-05 23:22:00,
2013-06-05 18:32:00,65.0,61.0,29.94,North,353,2.0,4.0,86,0.00,,,0.48,,2013-06-05 23:32:00,
2013-06-05 18:42:00,65.0,61.0,29.94,North,353,2.0,4.0,86,0.00,,,0.48,,2013-06-05 23:42:00,
2013-06-05 18:53:00,65.0,61.0,29.93,NNE,30,0.0,5.0,87,0.00,,,0.48,,2013-06-05 23:53:00,
2013-06-05 19:02:00,65.0,61.0,29.93,NNE,33,1.0,5.0,86,0.00,,,0.48,,2013-06-06 00:02:00,
2013-06-05 19:12:00,65.0,61.0,29.93,WNW,284,0.0,3.0,86,0.00,,,0.48,,2013-06-06 00:12:00,
2013-06-05 19:22:00,65.0,61.0,29.93,WNW,284,0.0,3.0,86,0.00,,,0.48,,2013-06-06 00:22:00,
2013-06-05 19:32:00,65.0,60.0,29.93,WNW,284,2.0,2.0,85,0.00,,,0.48,,2013-06-06 00:32:00,
2013-06-05 19:42:00,65.0,60.0,29.93,WNW,284,1.0,1.0,85,0.00,,,0.48,,2013-06-06 00:42:00,
2013-06-05 19:52:00,65.0,60.0,29.93,WNW,284,1.0,1.0,85,0.00,,,0.48,,2013-06-06 00:52:00,
2013-06-05 20:02:00,66.0,61.0,29.94,WNW,284,0.0,0.0,83,0.00,,,0.48,,2013-06-06 01:02:00,
2013-06-05 20:12:00,66.0,61.0,29.94,WNW,284,0.0,0.0,83,0.00,,,0.48,,2013-06-06 01:12:00,
2013-06-05 20:22:00,66.0,61.0,29.94,WNW,284,0.0,0.0,83,0.00,,,0.48,,2013-06-06 01:22:00,
2013-06-05 20:32:00,66.0,62.0,29.94,WNW,284,0.0,0.0,86,0.00,,,0.48,,2013-06-06 01:32:00,
2013-06-05 20:42:00,66.0,61.0,29.94,WNW,284,0.0,0.0,84,0.00,,,0.48,,2013-06-06 01:42:00,
2013-06-05 20:52:00,66.0,61.0,29.94,WNW,284,0.0,0.0,84,0.00,,,0.48,,2013-06-06 01:52:00,
2013-06-05 21:02:00,66.0,61.0,29.95,WNW,284,0.0,0.0,83,0.00,,,0.48,,2013-06-06 02:02:00,
2013-06-05 21:12:00,66.0,61.0,29.94,WNW,284,0.0,0.0,85,0.00,,,0.48,,2013-06-06 02:12:00,
2013-06-05 21:22:00,66.0,61.0,29.94,WNW,284,0.0,0.0,85,0.00,,,0.48,,2013-06-06 02:22:00,
2013-06-05 21:32:00,65.0,61.0,29.94,WNW,284,0.0,0.0,86,0.00,,,0.48,,2013-06-06 02:32:00,
2013-06-05 21:42:00,65.0,61.0,29.94,WNW,284,0.0,0.0,86,0.00,,,0.48,,2013-06-06 02:42:00,
2013-06-05 21:52:00,65.0,61.0,29.94,WNW,284,0.0,0.0,86,0.00,,,0.48,,2013-06-06 02:52:00,
2013-06-05 22:02:00,63.0,60.0,29.96,WNW,284,0.0,0.0,89,0.00,,,0.48,,2013-06-06 03:02:00,
2013-06-05 22:12:00,62.0,59.0,29.96,WNW,284,0.0,0.0,89,0.00,,,0.48,,2013-06-06 03:12:00,
2013-06-05 22:22:00,62.0,59.0,29.96,WNW,284,0.0,0.0,89,0.00,,,0.48,,2013-06-06 03:22:00,
2013-06-05 22:33:00,61.0,58.0,29.97,WNW,284,0.0,0.0,90,0.00,,,0.48,,2013-06-06 03:33:00,
2013-06-05 22:43:00,60.0,57.0,29.97,WNW,284,0.0,0.0,91,0.00,,,0.48,,2013-06-06 03:43:00,
2013-06-05 22:52:00,60.0,57.0,29.97,WNW,284,0.0,0.0,91,0.00,,,0.48,,2013-06-06 03:52:00,
2013-06-05 23:03:00,60.0,57.0,29.97,WNW,284,0.0,0.0,91,0.00,,,0.48,,2013-06-06 04:03:00,
2013-06-05 23:13:00,60.0,57.0,29.97,WNW,284,0.0,0.0,91,0.00,,,0.48,,2013-06-06 04:13:00,
2013-06-05 23:23:00,59.0,57.0,29.97,WNW,284,0.0,0.0,92,0.00,,,0.48,,2013-06-06 04:23:00,
2013-06-05 23:33:00,60.0,58.0,29.97,WNW,284,0.0,0.0,93,0.00,,,0.48,,2013-06-06 04:33:00,
2013-06-05 23:42:00,60.0,58.0,29.97,WNW,284,0.0,0.0,93,0.00,,,0.48,,2013-06-06 04:42:00,
2013-06-05 23:53:00,60.0,58.0,29.97,WNW,284,0.0,0.0,93,0.00,,,0.48,,2013-06-06 04:53:00,